Погода Октябрьский Городок

Погода Октябрьский Городок : погода сейчас, прогноз погоды и архив. Всё, что Вы хотите узнать о погоде Октябрьский Городок!

Поиск расширенной информации на нашем сайте:

Другие новости

Новости СМИ2

Главная страница сайта

Новости сайта

02.10.2013

Напоминаем, что на нашем новом сайте вы можете получить высокодетализированные прогнозы погоды по пунктам России, СНГ и мира (включающие важные для авиации метеовеличины, такие как направление и скорость ветра, видимость, явления погоды, количество и форма облачности, нижняя и верхняя граница облачности), а также ознакомиться с разнообразными материалами по авиационной метеорологии и подборкой полезных ссылок на эту тему.

Сайт Метеоцентр.Азия посвящён разработке технологий оптимизации авиаметеорологического обслуживания, включая проектирование и перспективное создание нескольких автоматизированных авиаметеорологических систем:
- система выпуска высокодетальных прогностических карт явлений погоды для нижнего воздушного пространства по России и ближнему зарубежью;
- система верификации прогнозов TAF (выпускаемых синоптиками официальных АМСГ РФ и ближнего зарубежья) и AUTOTAF (выпускаемых сайтом Метеоцентр.Азия) - выявление ошибок, онлайн-сопоставление с фактической погодой METAR, автоматическое внесение коррективов в прогнозы при резком отклонении фактической погоды от прогноза, подсчёт оправдываемости прогнозов по элементам и в целом;
- система обработки, анализа и отображения авиаметеорологической информации для применения провайдерами метеорологической информации.


Погода Октябрьский Городок - сегодня

Время (UTC), дата Ветер
(°,м/с) 
Видим.   Явления Облачность Т
(°С)
Тd
(°С)
f(%) Тe
(°С)
Pmin
(гПа)
dP
(гПа)
Po
(мм)
O2
(г/м3)
Тmin Tmax R s Состояние
почвы
12 25.05.17 180 (Ю) 20000 м    8/8 600 м 
[Cu med, cong]
+23.3 +7.5 36 +23  1016.1  -1  745  275           
15 25.05.17 030 (СВ) 20000 м    8/8 300 м 
[Sc]
+20.4 +9.6 50 +21  1016  1.9  744  277    +24.4       
18 25.05.17 тихо ()   20000 м    4/4 600 м 
[Sc]
+16.2 +11.5 74 +20  1016.7  0.4  745  281           
21 25.05.17 260 (З) 20000 м    ясно 
+12.8 +10 83 +15  1016.9  0.1  745  285           
00 26.05.17 290 (З) 20000 м    6/6 600 м 
[Sc]
+10.7 +9 89 +11  1016.9  -0.2  744  287           
03 26.05.17 240 (ЮЗ) 20000 м    4/0 средняя 
[Ac trans]
+11.5 +9.6 88 +14  1016.5  -0.3  744  286  +11.3        сухая 
06 26.05.17 260 (З) 20000 м    4/3 600 м средняя 
[Sc|Ac trans]
+19.4 +10.6 57 +23  1015.3  -0.5  744  278           
09 26.05.17 200 (Ю) 20000 м    8/5 600 м верхняя 
[Cu med, cong|Ci fib]
+22.7 +8.4 40 +23  1014  -0.7  743  275           
12 26.05.17 070 (В) 3{11}  2000 м  гроза, ливневой дождь  10/10 600 м кучево-дожд. 
[Cb cap]
+12.2 +11.4 95 +15  1014.4  -0.4  743  284           
18 26.05.17 220 (ЮЗ) 4000 м  ливневой дождь  8/8 600 м кучево-дожд. 
[Cb cap]
+14.5 +12.4 87 +20  1012.8  0.2  742  281           
21 26.05.17 280 (З) 20000 м  {ливн. осадки}  3/0 средняя 
[Ac trans]
+13.3 +11.9 91 +19  1011.5  -1.5  741  282           
03 27.05.17 260 (З) 20000 м    5/3 600 м средняя 
[Sc|Ac trans]
+11.6 +10.2 91 +15  1010.9  -0.5  740  284  +10.3      мокрая 
06 27.05.17 260 (З) 20000 м    6/0 верхняя 
[Ci sp]
+19.5 +12.2 63 +25  1009.8  -0.4  740  276           
09 27.05.17 270 (З) 20000 м    4/4 600 м 
[Cu med, cong]
+23.1 +11.2 47 +26  1008.8  -0.8  739  273           
15 27.05.17 200 (Ю) 3{12}  20000 м  {гроза, ливн. осадки}  8/5 600 м кучево-дожд., средняя 
[Cb calv|Ac cast]
+15.2 +12.5 84 +20  1010.2  1.7  740  280    +23.8     
18 27.05.17 310 (СЗ) 20000 м  в посл. час дождь{гроза, ливн. осадки}  10/10 300 м 
[Sc]
+14 +12.3 89 +19  1010.4  0.1  740  281           
21 27.05.17 310 (СЗ) 20000 м    ясно 
+11.7 +9.4 86 +12  1011.5  0.9  740  284           
00 28.05.17 330 (СЗ) 20000 м    ясно 
+9.2 +7.3 88 +8  1012.4  0.7  741  288           
03 28.05.17 340 (С) 20000 м    ясно 
+10 +7.7 86 +9  1013.7  1.3  742  287  +8.3      мокрая 
06 28.05.17 270 (З) 20000 м    8/3 600 м верхняя 
[Cu med, cong|Ci fib]
+15 +5.6 53 +16  1013.3  742  282           
09 28.05.17 280 (З) 20000 м    9/8 600 м верхняя 
[Cu hum|Ci fib]
+17 +4.4 43 +17  1012  -1.1  741  280           
15 28.05.17 250 (З) 6-10{15}  20000 м  в посл. час ливневой дождь  10/10 300 м кучево-дожд. 
[Cb cap]
+10.7 +8 83 +9  1009.8  -1.4  739  285    +17.4     
21 28.05.17 320 (СЗ) 4{10}  20000 м    ясно 
+3.5 +0.9 83 +2  1018.4  3.1  745  296           
00 29.05.17 360 (С) 20000 м    ясно 
+1.6 -1 83 1019.8  1.1  746  299           
03 29.05.17 320 (СЗ) 20000 м    9/0 верхняя 
[Ci fib]
+3.6 -1.6 69 +3  1021.2  1.3  747  297  +0.9      влажная 
Время (UTC), дата Ветер
(°,м/с) 
Видим.   Явления Облачность Т
(°С)
Тd
(°С)
f(%) Тe
(°С)
Pmin
(гПа)
dP
(гПа)
Po
(мм)
O2
(г/м3)
Тmin Tmax R s Состояние
почвы

Для получения пояснительной информации подведите курсор к названию столбца.

ПОГОДА Октябрьский Городок - архив

Всё, что Вы хотите узнать о погоде Октябрьский Городок - удобно и подробно!

Выберите нужную дату (начиная с 1 января 2015* года) и нажмите кнопку "Найти".
Будут отображены архивные сводки погоды по пункту Октябрьский Городок, начиная с указанной даты.


Отображать данные в формате CSV (для использования в таблицах Excel)


Внимание! Наш архив погоды предназначен исключительно для личного некоммерческого использования в познавательных целях. Если Вам необходимы официальные справки о состоянии погоды (для производственных, юридических, коммерческих и т.п. целей), обращайтесь в органы Росгидромета.

*Примечание: данная дата относится к архиву по метеостанциям СССР (Россия, СНГ, Балтия).
Архив по метеостанциям Зарубежной Европы и Азии (кроме Китая) хранится 10 дней, по другим регионам земного шара (Китай, Африка, Америка, Австралия, Океания) - 1 день.

Октябрьский Городок - район местоположения метеостанции


Название, широта, долгота, высота метеостанции:
Октябрьский Городок 51.6°ш. 45.4°д. 201 м над ур. моря [Российская Федерация]

Дополнительная информация

В oтличие oт бoльшинства пoгoдных сайтoв мы публикуем пoдрoбную метеoинфoрмацию в детальнoм прoфессиoнальнoм фoрмате.

Характеристики температуры и влажнoсти вoздуха измеряются на высoте 2 м в тени вдали oт зданий и деревьев.
Скoрoсть ветра измеряется на высoте 10 м (на урoвне рoста челoвека скoрoсть ветра ниже в 1.5-2 раза). Если метеoстанция нахoдится в гoрoде или в лесу, тo скoрoсть ветра занижена на 2-4 м/с пo сравнению с oткрытым местoм. Скoрoсть ветра над акватoриями крупных рек и oзёр, а также на вершинах хoлмoв на 2-5 м/с выше, чем в oбычных услoвиях.
Атмoсфернoе давление в разных тoчках местнoсти мoжет значительнo oтличаться oт давления на метеoстанции, в зависимoсти oт услoвий рельефа (при пoдъёме на 10 м давление пoнижается примернo на 1 мм рт.ст.).